www.pogodaiklimat.ru

Погода и климат >> Архив погоды >> Бразилия >> Баия >> Ильеус


ПОГОДА в Ильеусе

  • Прогноз погоды в Ильеусе
  • Монитор погоды в Ильеусе

АРХИВ ПОГОДЫ в Ильеусе

Время (UTC), дата Ветер
(напр.,м/с)
 
Видим.   Явления Облачность Т
(С)
Тd
(С)
f
(%)
Тe
(С)
Тes
(С)
Комфортность P
(гПа)
Po
(гПа)
Тmin
(С)
Tmax
(С)
R
(мм)
R24
(мм)
S
(см)
09 18.05 З 2 20 км 10/8 600 м
[Sc Ac trans Ci]
+24.0 +23.3 96 +32 +32 очень
душно
1014.1 1013.5
12 18.05 ЮЗ 5 20 км 8/5 600 м
[Sc Ac trans]
+28.7 +23.5 74 +39 +41 очень
душно
1015.9 1015.3 +24.0
15 18.05 В 3 20 км 8/6 600 м
[Sc Ac trans]
+29.2 +24.1 74 +41 +44 опасность
перегрева
1014.1 1013.5
18 18.05 В 3 20 км 6/3 600 м
[Cu med, cong Ac und]
+28.5 +23.7 75 +39 +41 очень
душно
1012.5 1011.9
21 18.05 В 3 20 км 6/3 600 м
[Cu med, cong Ac trans]
+27.3 +23.6 80 +37 +37 очень
душно
1013.0 1012.4
00 19.05 ЮЗ 1 8000 м осадки на расстоянии 9/9 300 м
[Cu Sc]
+25.8 +24.3 91 +36 +36 очень
душно
1014.9 1014.3 +29.2
03 19.05 Ю 3 10 км осадки на расстоянии 8/5 300 м
[Cu med, cong Ac und]
+25.8 +24.8 94 +37 +37 очень
душно
1014.8 1014.2
06 19.05 С 1 20 км в посл. час дождь {гроза} 9/8 300 м
[Sc Ac trans]
+24.9 +24.0 95 +34 +34 очень
душно
1013.8 1013.2 0.0
09 19.05 Ю 2 10 км осадки на расстоянии 9/8 300 м
[Sc Ac trans]
+24.5 +23.0 91 +32 +32 очень
душно
1014.9 1014.3
12 19.05 Ю 3 20 км 6/5 300 м
[Cu Sc Ac trans]
+27.2 +23.2 79 +37 +40 очень
душно
1016.3 1015.7 +24.5 0.0
15 19.05 ЮЗ 3 20 км 6/4 600 м
[Cu med, cong Ac trans Ci fib]
+29.4 +23.8 72 +40 +47 очень
душно
1014.9 1014.3
18 19.05 ЮВ 4 20 км 5/1 600 м
[Cu med, cong Ci]
+28.7 +24.2 77 +40 +43 очень
душно
1012.9 1012.3
21 19.05 ЮВ 3 20 км 8/4 300 м
[Cu med, cong Ci fib]
+27.6 +24.4 83 +39 +39 очень
душно
1013.6 1013.0
00 20.05 ЮЗ 1 20 км 6/3 600 м
[Cu hum Ci]
+25.3 +23.8 91 +34 +34 очень
душно
1015.7 1015.1 +29.4
03 20.05 ЮЗ 2 20 км 4/3 600 м
[Cu med, cong Ci fib]
+24.7 +23.6 94 +34 +34 очень
душно
1015.6 1015.0
06 20.05 ЮЗ 3 20 км 1/1 600 м
[Cu hum]
+24.6 +23.2 92 +33 +33 очень
душно
1014.0 1013.4
09 20.05 ЮЗ 3 20 км 4/3 600 м
[Cu med, cong Ac und]
+24.3 +23.3 94 +33 +33 очень
душно
1014.4 1013.8
12 20.05 ЮЗ 3 20 км 5/4 600 м
[Cu med, cong Ci]
+27.5 +24.5 84 +39 +43 очень
душно
1016.7 1016.1 +24.3
15 20.05 Ю 4 20 км 5/3 600 м
[Cu med, cong Ac trans]
+29.4 +24.4 75 +42 +48 опасность
перегрева
1015.5 1014.9
18 20.05 ЮВ 4 20 км 4/3 600 м
[Cu med, cong Ac trans]
+29.1 +24.6 77 +41 +44 опасность
перегрева
1013.5 1012.9
21 20.05 ЮВ 3 20 км 6/3 600 м
[Cu med, cong Ac trans Ci fib]
+27.7 +24.6 83 +39 +39 очень
душно
1014.0 1013.4
00 21.05 Ю 2 20 км 5/5 600 м
[Cu med, cong]
+27.1 +24.4 85 +38 +38 очень
душно
1015.4 1014.8 +29.5
03 21.05 З 2 20 км 1/1 600 м
[Cu hum]
+25.0 +24.2 95 +34 +34 очень
душно
1015.2 1014.6
06 21.05 ЮЗ 3 20 км 1/1 600 м
[Cu hum]
+24.6 +24.0 96 +34 +34 очень
душно
1013.8 1013.2
09 21.05 З 2 20 км 4/4 600 м
[Cu med, cong]
+24.5 +24.1 98 +34 +34 очень
душно
1014.0 1013.4
12 21.05 З 1 20 км в посл. час дождь 8/5 600 м
[Cu Sc Ac trans]
+25.8 +25.1 96 +37 +40 очень
душно
1016.1 1015.5 +24.5 2
15 21.05 ЮВ 5 20 км {дождь} 8/5 600 м
[Cu med, cong Ac trans]
+29.2 +24.9 78 +42 +45 опасность
перегрева
1015.3 1014.7
18 21.05 15 км осадки на расстоянии н/о +29.1 +24.9 78 +42 +43 опасность
перегрева
1013.4 1012.8
21 21.05 Ю 2 20 км 8/3 600 м
[Cu med, cong Ac trans Ci fib]
+27.4 +23.4 79 +37 +37 очень
душно
1014.1 1013.5
00 22.05 ЮЗ 3 10 км осадки на расстоянии 8/4 600 м
[Cu med, cong Ac trans Ci fib]
+26.5 +25.1 92 +38 +38 очень
душно
1015.6 1015.0 +29.4 0.0
03 22.05 ЮЗ 2 20 км 8/4 600 м
[Cu med, cong Ac trans Ci fib]
+25.1 +24.1 94 +35 +35 очень
душно
1015.5 1014.9
06 22.05 Ю 3 20 км 8/6 300 м
[Cu med, cong Ac trans]
+25.0 +23.9 94 +34 +34 очень
душно
1014.4 1013.8
09 22.05 ЮЗ 1 20 км 8/6 600 м
[Cu Sc Ac trans]
+24.5 +23.9 96 +33 +33 очень
душно
1014.8 1014.2
12 22.05 З 2 20 км {дождь} 9/3 600 м
[Cu med, cong Ac trans Ci fib]
+27.0 +25.4 91 +39 +43 очень
душно
1016.6 1016.0 +24.5 1
15 22.05 ЮВ 3 20 км 4/3 600 м
[Cu med, cong Ci fib]
+30.0 +24.6 73 +43 +51 опасность
перегрева
1015.1 1014.5
18 22.05 ЮВ 5 20 км 5/4 600 м
[Cu med, cong Ac trans]
+29.2 +25.1 79 +42 +44 опасность
перегрева
1013.1 1012.5
21 22.05 ЮВ 2 20 км 4/4 600 м
[Cu med, cong]
+28.0 +25.1 84 +40 +40 очень
душно
1013.4 1012.8
00 23.05 З 1 20 км 1/1 600 м
[Cu hum]
+25.6 +24.8 95 +36 +36 очень
душно
1014.9 1014.3 +30.0
03 23.05 З 2 20 км 4/4 600 м
[Cu med, cong]
+24.5 +24.2 98 +34 +34 очень
душно
1015.1 1014.5
06 23.05 З 2 20 км 4/1 600 м
[Cu hum Ac trans]
+23.6 +23.5 99 +32 +32 очень
душно
1014.0 1013.4
09 23.05 З 2 20 км 4/1 600 м
[Cu med, cong Ac trans]
+23.1 +23.0 99 +32 +32 очень
душно
1014.8 1014.2
12 23.05 Ю 2 20 км 4/3 600 м
[Cu med, cong Ac trans]
+28.8 +25.2 81 +42 +47 опасность
перегрева
1016.6 1016.0 +23.3
15 23.05 ЮВ 4 20 км 5/5 600 м
[Cu med, cong]
+29.4 +24.4 75 +42 +47 опасность
перегрева
1015.5 1014.9
18 23.05 ЮВ 3 20 км 5/3 600 м
[Cu med, cong Ci]
+29.2 +24.7 77 +42 +44 опасность
перегрева
1013.4 1012.8
21 23.05 ЮВ 3 20 км 5/1 600 м
[Cu hum Ci fib]
+27.5 +22.2 73 +36 +36 очень
душно
1013.9 1013.3
00 24.05 З 1 20 км 1/1 600 м
[Cu hum]
+24.4 +23.8 96 +33 +33 очень
душно
1014.6 1014.0 +29.7
03 24.05 З 2 20 км 4/4 600 м
[Cu med, cong]
+23.5 +23.1 98 +31 +31 очень
душно
1014.7 1014.1
06 24.05 З 2 20 км 4/4 600 м
[Cu med, cong]
+22.6 +22.5 99 +31 +31 очень
душно
1013.5 1012.9
09 24.05 З 2 20 км 6/6 600 м
[Cu med, cong]
+22.5 +22.4 99 +30 +30 очень
душно
1014.6 1014.0
12 24.05 ЮЗ 3 20 км 4/1 600 м
[Cu hum Ci fib]
+28.0 +24.5 81 +39 +46 очень
душно
1016.2 1015.6 +22.5
15 24.05 СВ 4 20 км 6/3 600 м
[Cu med, cong Ci]
+29.8 +23.3 68 +40 +47 очень
душно
1015.0 1014.4
18 24.05 СВ 3 20 км 4/1 600 м
[Cu hum Ci fib]
+29.5 +24.0 72 +41 +44 опасность
перегрева
1012.6 1012.0
21 24.05 СВ 3 20 км 3/0
[Ci fib]
+27.6 +23.3 77 +37 +37 очень
душно
1013.1 1012.5
00 25.05 СВ 1 20 км 5/0
[Ci fib]
+27.6 +23.0 76 +37 +37 очень
душно
1014.6 1014.0 +30.1
03 25.05 З 2 20 км 5/4 600 м
[Cu med, cong Ci fib]
+23.8 +23.4 98 +32 +32 очень
душно
1014.9 1014.3
06 25.05 З 2 20 км 4/3 600 м
[Cu med, cong Ci fib]
+23.0 +22.7 98 +32 +32 очень
душно
1013.9 1013.3

 

Местоположение метеостанции Ильеус (Баия, Бразилия): широта -14.81 долгота -39.03 высота над уровнем моря 4 м.

В архиве по умолчанию представлена погода в Ильеусе за последнюю неделю. Архивные данные за месяц целиком и за предыдущие месяцы, начиная с января 2011 года, Вы можете получить, выбрав интересующий диапазон дат из раскрывающегося списка и нажав кнопку "Ввод!".


*Определитесь, кто Вы:
робот инопланетянин человек

Внимание! Время в таблицах - всемирное. Для получения местного времени необходимо прибавить поправку, которая равна -3 ч.

Смотрите также архив погоды в соседних городах и на ближайших метеорологических станциях:

Погода в Ильеусе (Баия, Бразилия) (23 км)
Погода в Уне (Баия, Бразилия) (53 км)
Погода в Марау (Баия, Бразилия) (100 км)
Погода в Ипиау (Баия, Бразилия) (101 км)
Погода в Итапетинге (Баия, Бразилия) (138 км)
Погода в Бельмонте (Баия, Бразилия) (143 км)
Погода в Валенце (Баия, Бразилия) (163 км)
Погода в Порту-Сегуру (Баия, Бразилия) (175 км)
Погода в Порту-Сегуру (Баия, Бразилия) (180 км)
Погода в Итирусу (Баия, Бразилия) (185 км)

Пояснения к столбцам:

Ветер - указаны скорость ветра в м/с - средняя за 10 мин, порывы в срок и между сроками (в фигурных скобках) и направление, откуда дует ветер: С - северный, СВ - северо-восточный, В - восточный, ЮВ - юго-восточный, Ю - южный, ЮЗ - юго-западный, З - западный, СЗ - северо-западный.
Видимость - горизонтальная дальность видимости в метрах или километрах. При видимости от 1 до 10 км при отсутствии осадков обычно наблюдается дымка, при ухудшении видимости до 1 км и менее - туман. В сухую погоду видимость может ухудшаться дымом, пылью или мглою.
Явления - указаны атмосферные явления, наблюдавшиеся в срок или в последний час перед сроком; фигурными скобками обозначены явления, наблюдавшиеся между сроками (за 1-3 часа до срока); квадратными скобками обозначены град или гололедные отложения с указанием их диаметра в мм.
Облачность - указаны через наклонную черту общая и нижняя облачность в баллах и высота нижней границы облаков в метрах; квадратными скобками обозначены формы облаков: Ci - перистые, Cs - перисто-слоистые, Cc - перисто-кучевые, Ac - высококучевые, As - высокослоистые, Sc - слоисто-кучевые, Ns - слоисто-дождевые, Cu - кучевые, Cb - кучево-дождевые. Подробнее классификацию облаков см. в Атласе облаков (PDF).
T - Температура воздуха - температура, измеренная на высоте 2 м над землей.
Td - Температура точки росы - температура, при понижении до которой содержащийся в воздухе водяной пар достигнет насыщения.
f - Относительная влажность воздуха - влажноcть воздуха, измеренная на высоте 2 м над землей.
Te - Эффективная температура - температура, которую ощущает одетый по сезону человек в тени. Характеристика душности погоды. При расчете учитывается влияние влажности воздуха и скорости ветра на теплоощущения человека.
Tes - Эффективная температура на солнце - температура, которую ощущает человек, с поправкой на солнечный нагрев. Характеристика знойности погоды. Зависит от высоты солнца над горизонтом, облачности и скорости ветра. Ночью, в пасмурную погоду, а также при ветре 12 м/с и более поправка равна нулю.
P - Атмосферное давление - приведенное к уровню моря атмосферное давление.
Po - Атмосферное давление - измеренное на уровне метеостанции атмосферное давление.
Tmin - Минимальная температура - минимум температуры воздуха на высоте 2 м над землей.
Tmax - Максимальная температура - максимум температуры воздуха на высоте 2 м над землей.
R - Количество осадков - Количество выпавших осадков за период времени, мм. При наведении курсора мыши на число - период времени, за который выпало указанное количество осадков.
R24 - Количество осадков - Количество выпавших осадков за 24 часа, мм.
S - Снежный покров - Высота снежного покрова, см. При наведении курсора мыши на число - состояние снежного покрова и степень покрытия местности в баллах.